Regional Weather Roundup
Issued by NWS Cleveland, OH

Home | Current Version | Previous Version | Text Only | Print | Product List | Glossary Off
Versions: 1 2 3 4 5 6 7 8 9 10 11 12 13 14 15 16 17 18 19 20 21 22 23 24 25 26 27 28 29 30 31 32 33 34 35 36 37 38 39 40 41 42 43 44 45 46 47 48 49 50

000
ASUS41 KCLE 030910
RWRCLE
OHIO REGIONAL WEATHER ROUNDUP
NATIONAL WEATHER SERVICE WILMINGTON, OH
500 AM EDT THU SEP 03 2015

NOTE: "FAIR" INDICATES FEW OR NO CLOUDS BELOW 12,000 FEET WITH NO
SIGNIFICANT WEATHER AND/OR OBSTRUCTIONS TO VISIBILITY.

OHZ001>008-015>018-024>027-034-035-043-044-031000-
   NORTHWEST OHIO

CITY           SKY/WX    TMP DP  RH WIND       PRES   REMARKS
DEFIANCE       PTCLDY    70  66  87 S3        29.99S
FINDLAY        CLOUDY    71  66  84 CALM      29.99S
TOLEDO EXPRESS CLOUDY    71  68  90 SW5       29.97F
TOLEDO EXEC    CLOUDY    72  67  84 SW3       29.98F
LIMA           PTCLDY    69  66  90 S3        30.01S
$$

OHZ009>014-019>023-028>033-038-089-031000-
   NORTHEAST OHIO

CITY           SKY/WX    TMP DP  RH WIND       PRES   REMARKS
CLE-HOPKINS    MOCLDY    70  66  87 SW5       30.00R
CLE-LAKEFRONT  PTCLDY    74  68  81 SW8       29.96S
CUY CO. ARPT   NOT AVBL
LORAIN-ELYRIA  PTCLDY    68  65  90 W5        29.99R
ASHTABULA      MOCLDY    67  67 100 CALM      29.98S FOG
AKRON-CANTON   PTCLDY    70  66  87 W5        30.00R FOG
WOOSTER        PTCLDY    67  65  93 W5        30.00S
MANSFIELD      PTCLDY    71  66  84 W8        30.01S
YOUNGSTOWN     MOCLDY    68  66  93 SW3       29.98S
$$

OHZ042-051>053-060>062-070>072-077>081-031000-
  SOUTHWEST OHIO

CITY           SKY/WX    TMP DP  RH WIND       PRES   REMARKS
CINC-COVINGTON CLEAR     67  66  97 CALM      30.02S FOG
CINC-LUNKEN    CLEAR     66  66 100 CALM      30.02S FOG
HAMILTON       CLEAR     67  65  93 CALM      30.03R FOG
DAYTON         PTCLDY    68  66  93 SW5       30.03S
WRIGHT-PAT AFB PTCLDY    67  67 100 SW2       30.01S
DAYTON GENERAL CLEAR     67  65  93 CALM      30.02S FOG
WILMINGTON     CLEAR     64  62  93 S3        30.02S FOG
$$

OHZ036-037-039>041-045>050-054>059-063>069-073>076-082>088-031000-
  CENTRAL AND SOUTHEAST OHIO

CITY           SKY/WX    TMP DP  RH WIND       PRES   REMARKS
COLUMBUS       MOCLDY    70  68  93 CALM      29.99S
OSU AIRPORT    PTCLDY    68  65  90 N3        30.00S
BOLTON FIELD   CLEAR     67  67  97 W3        30.01R
RICKENBACK AFB PTCLDY    68  67  96 SW5       29.99S FOG
NEWARK         MOCLDY    68  66  93 CALM      29.99S
MARION         MOCLDY    71  67  87 W3        30.01S
LANCASTER      PTCLDY    67  65  93 CALM      30.00S FOG
ZANESVILLE     MOCLDY    68  64  87 CALM      29.99S FOG
NEW PHILLY     PTCLDY    66  65  96 CALM      29.99S FOG
$$


USA.gov is the U.S. government's official web portal to all federal, state and local government web resources and services.